Location: Mason Neck State Park
(38.6428°N, 77.1981°W)
Time: 17:43:49
(UTC-04:00)

Cosmos 2278 Rocket - Visible Passes

Search period start: 22 October 2014 00:00
Search period end: 01 November 2014 00:00
Orbit: 842 x 845 km, 71.0° (Epoch: 22 October)

Date Brightness Start Highest point End Pass type
(mag) Time Alt. Az. Time Alt. Az. Time Alt. Az.
22 Oct 2.5 19:33:59 10° N 19:39:24 45° ENE 19:43:15 18° SE visible
22 Oct 4.2 21:18:46 10° NW 21:23:08 23° W 21:25:12 19° SW visible
23 Oct 2.5 19:19:32 10° N 19:24:55 43° ENE 19:30:15 10° SE visible
23 Oct 4.2 21:04:14 10° NW 21:08:41 24° WSW 21:12:51 11° SSW visible
24 Oct 2.6 19:05:06 10° N 19:10:26 41° ENE 19:15:44 10° SE visible
24 Oct 4.2 20:49:41 10° NW 20:54:14 26° WSW 20:58:46 10° SSW visible
25 Oct 2.6 18:50:39 10° N 18:55:57 40° ENE 19:01:12 10° SE visible
25 Oct 4.2 20:35:09 10° NW 20:39:47 27° WSW 20:44:24 10° SSW visible
26 Oct 2.7 18:36:13 10° N 18:41:28 38° ENE 18:46:40 10° SE visible
26 Oct 4.1 20:20:37 10° NW 20:25:20 28° WSW 20:30:02 10° SSW visible
27 Oct 4.1 20:06:05 10° NW 20:10:53 29° WSW 20:15:40 10° SSW visible
28 Oct 4.1 19:51:34 10° NW 19:56:26 31° WSW 20:01:17 10° SSW visible
29 Oct 4.1 19:37:03 10° NW 19:41:59 32° WSW 19:46:54 10° SSW visible
30 Oct 4.0 19:22:32 10° NW 19:27:32 33° WSW 19:32:31 10° SSW visible
31 Oct 4.0 19:08:01 10° NW 19:13:05 35° WSW 19:18:08 10° SSW visible
